This is the latest recevied weather packets stored in our database for station/object N4WFF. If no packets are shown the sender has not sent any weather packets the latest 10 day(s).
| Time | Temp. | Humidity | Pressure | Rain* | Wind** | Luminosity | Snow |
|---|---|---|---|---|---|---|---|
| 1777914356 | 23.89° C | 41% | 1017.4 hPa | 0 mm | - | 968 W/m² | - |
| 1777914056 | 23.89° C | 44% | 1017.5 hPa | 0 mm | - | 963 W/m² | - |
| 1777913756 | 23.89° C | 43% | 1017.6 hPa | 0 mm | - | 961 W/m² | - |
| 1777913456 | 23.89° C | 43% | 1017.6 hPa | 0 mm | - | 956 W/m² | - |
| 1777913156 | 23.89° C | 43% | 1017.6 hPa | 0 mm | - | 948 W/m² | - |
| 1777912855 | 23.89° C | 42% | 1017.7 hPa | 0 mm | - | 941 W/m² | - |
| 1777912556 | 23.89° C | 43% | 1018 hPa | 0 mm | - | 931 W/m² | - |
| 1777912256 | 23.89° C | 43% | 1018 hPa | 0 mm | - | 924 W/m² | - |
| 1777911956 | 23.89° C | 43% | 1018 hPa | 0 mm | - | 915 W/m² | - |
| 1777911657 | 23.89° C | 41% | 1018.1 hPa | 0 mm | - | 909 W/m² | - |
| 1777911357 | 23.33° C | 45% | 1018.1 hPa | 0 mm | - | 898 W/m² | - |
| 1777911056 | 23.33° C | 42% | 1018.1 hPa | 0 mm | - | 892 W/m² | - |
| 1777910757 | 23.89° C | 45% | 1018.1 hPa | 0 mm | - | 880 W/m² | - |
| 1777910456 | 23.33° C | 44% | 1018.2 hPa | 0 mm | - | 871 W/m² | - |
| 1777910156 | 23.33° C | 45% | 1018.3 hPa | 0 mm | - | 863 W/m² | - |
| 1777909857 | 23.33° C | 45% | 1018.2 hPa | 0 mm | - | 851 W/m² | - |
| 1777909555 | 22.78° C | 42% | 1018.3 hPa | 0 mm | - | 840 W/m² | - |
| 1777909256 | 22.78° C | 44% | 1018.2 hPa | 0 mm | - | 828 W/m² | - |
| 1777908956 | 22.78° C | 45% | 1018.2 hPa | 0 mm | - | 813 W/m² | - |
| 1777908656 | 22.78° C | 44% | 1018.2 hPa | 0 mm | - | 803 W/m² | - |
| 1777908356 | 22.22° C | 46% | 1018.2 hPa | 0 mm | - | 726 W/m² | - |
| 1777908056 | 22.22° C | 46% | 1018.2 hPa | 0 mm | - | 777 W/m² | - |
| 1777907755 | 22.22° C | 48% | 1018.3 hPa | 0 mm | - | 760 W/m² | - |
| 1777907456 | 21.67° C | 49% | 1018.4 hPa | 0 mm | - | 747 W/m² | - |
| 1777907157 | 21.67° C | 50% | 1018.4 hPa | 0 mm | - | 732 W/m² | - |
* Rain latest hour (hover to see other rain measurements)
** Current wind speed in m/s (hover to see current wind gust speed)